カタログに戻る

ATLAS 5 CENTAUR R/B

運用中MEO
NORAD 46919·ROCKET BODY·🇺🇸 United States

打ち上げ Nov 13, 2020 から Cape Canaveral Space Force Station

Loading…

次のパス (今後24時間)

TLE

最新Source: Space-Track

元期: Sep 14, 2026, 12:29 UTC

1 46919U 20083B   26257.52033782 -.00000033  00000-0  00000-0 0  9991
2 46919  58.8905 307.5730 0134297 232.3097 126.5285  3.86388231 48938

AllMySatでATLAS 5 CENTAUR R/Bをリアルタイム追跡

Download on the App Store